[[{"header":{"parameterUnit":"m.s-1","parameterCategory":1,"la1":30.2991,"la2":30.254,"lo1":-89.0895,"lo2":-89.0444,"dy":0.0017,"dx":0.0017,"nx":28,"ny":28,"refTime":"2023-10-02T03:00:00:Z","depth":0,"parameterNumber":2,"parameterNumberName":"U-component_of_WINDS"},"data":[0,0,0,0,0,0,0,0,0,0,0,0,0,0,0,0,0,0,0,0,0,0,0,0,0,0,0,0,0,0,0,0,0,0,0,0,0,0,0,0,0,0,0,0,0,0,0,0,0,0,0,0,0,0,0,0,0,0,-5.2515,-5.2516,0,-5.2555,-5.2556,-5.2556,-5.2439,-5.2435,-5.2432,-5.2428,-5.2471,-5.2475,-5.248,0,0,0,0,0,0,0,0,0,0,0,0,0,-5.234,-5.2344,-5.2515,-5.2516,-5.2516,-5.2555,-5.2556,-5.2556,-5.244,-5.2435,-5.2431,-5.2427,-5.247,-5.2475,-5.248,0,0,0,0,0,0,0,0,0,0,0,0,0,-5.2402,-5.2345,-5.2515,-5.2463,-5.2458,-5.2555,-5.2556,-5.2556,-5.2441,-5.2435,-5.243,-5.2425,-5.2468,-5.2474,-5.2481,-5.2631,0,0,-5.2502,-5.2505,0,0,0,0,0,0,0,0,-5.2398,-5.2408,-5.247,-5.2466,-5.2462,-5.2486,-5.2509,-5.2581,-5.2442,-5.2447,-5.2428,-5.2422,-5.2481,-5.2486,-5.2505,-5.2633,-5.2634,-5.2502,-5.2506,-5.2509,-5.2511,0,0,0,0,0,0,0,-5.2394,-5.2406,-5.2531,-5.2471,-5.2466,-5.2438,-5.2441,-5.2522,-5.2494,-5.2447,-5.2438,-5.2444,-5.2477,-5.2499,-5.2506,-5.2635,-5.2502,-5.2508,-5.2512,-5.2515,-5.2888,-5.2894,0,0,0,0,0,0,-5.2396,-5.2403,-5.253,-5.2532,-5.2416,-5.2445,-5.2448,-5.2484,-5.2493,-5.2489,-5.2449,-5.2439,-5.249,-5.2498,-5.2507,-5.2683,-5.2509,-5.2515,-5.2519,-5.2882,-5.2889,-5.2896,0,0,0,0,0,0,-5.2393,-5.2409,-5.2528,-5.2465,-5.2478,-5.2454,-5.2495,-5.2488,-5.2509,-5.2494,-5.2489,-5.2476,-5.2486,-5.2497,-5.2601,-5.2683,-5.2518,-5.2525,-5.2875,-5.2884,-5.2893,-5.3036,0,0,0,0,0,0,-5.2389,-5.2408,-5.2464,-5.2467,-5.2482,-5.2621,-5.25,-5.2492,-5.2521,-5.2508,-5.2519,-5.2515,-5.2483,-5.2591,-5.2608,-5.2689,-5.253,-5.2868,-5.2879,-5.289,-5.3024,-5.3049,-5.307,0,0,0,0,0,-5.2383,-5.2503,-5.2468,-5.2484,-5.2552,-5.2626,-5.2635,-5.2594,-5.2528,-5.2584,-5.2575,-5.2515,-5.2671,-5.2603,-5.262,-5.2705,-5.2862,-5.2876,-5.2889,-5.3014,-5.3044,-5.3069,0,0,0,0,0,0,-5.2511,-5.2503,-5.2463,-5.2588,-5.2609,-5.2606,-5.2676,-5.2628,-5.2668,-5.2654,-5.2603,-5.2607,-5.272,-5.2723,-5.2647,-5.2851,-5.2756,-5.2773,-5.2845,-5.2873,-5.2896,-5.2893,-5.2535,0,0,0,0,0,-5.2553,-5.2614,-5.2604,-5.2715,-5.2728,-5.2701,-5.2732,-5.2699,-5.2718,-5.2727,-5.2725,-5.2746,-5.28,-5.2837,-5.2885,-5.3024,-5.3025,-5.3091,-5.3114,-5.3133,-5.3148,-5.3223,-5.3252,-5.2939,-5.2939,-5.2939,0,0,-5.2642,-5.2645,-5.2687,-5.2741,-5.2753,-5.2818,-5.2709,-5.2781,-5.2829,-5.2738,-5.2835,-5.2835,-5.2856,-5.2978,-5.3032,-5.2984,-5.3235,-5.315,-5.3165,-5.317,-5.3239,-5.3269,-5.3295,-5.2948,-5.2946,-5.2945,0,0,-5.2837,-5.2846,-5.2939,-5.2954,-5.2974,-5.2955,-5.2978,-5.2983,-5.2979,-5.3077,-5.301,-5.3066,-5.316,-5.3178,-5.3199,-5.3403,-5.3349,-5.342,-5.354,-5.3613,-5.3638,-5.366,-5.3733,-5.376,-5.3436,-5.3436,-5.3437,0,-5.2945,-5.3039,-5.2994,-5.3072,-5.3098,-5.3018,-5.3114,-5.313,-5.3165,-5.3186,-5.3131,-5.3248,-5.3256,-5.3382,-5.3432,-5.3452,-5.3477,-5.3418,-5.3638,-5.3659,-5.3679,-5.3748,-5.3776,-5.3445,-5.3444,-5.3443,-5.3442,0,-5.3171,-5.3238,-5.3311,-5.3347,-5.3382,-5.3468,-5.3437,-5.3478,-5.3443,-5.343,-5.3531,-5.3539,-5.3588,-5.3615,-5.3582,-5.3737,-5.3706,-5.3646,-5.355,-5.3718,-5.3782,-5.3808,-5.3457,-5.3454,-5.3451,-5.3449,0,0,-5.3447,-5.3457,-5.3485,-5.35,-5.3517,-5.3568,-5.3651,-5.3699,-5.3735,-5.3763,-5.3832,-5.3914,-5.3858,-5.3883,-5.3851,-5.3915,-5.4077,-5.3847,-5.3847,-5.389,-5.4249,-5.4294,-5.4325,-5.4042,-5.4047,-5.4051,-5.4247,0,-5.3639,-5.378,-5.3743,-5.3885,-5.3946,-5.3872,-5.3945,-5.3964,-5.3955,-5.4006,-5.3996,-5.4055,-5.3978,-5.3992,-5.4052,-5.4045,-5.4148,-5.403,-5.4106,-5.4109,-5.4103,-5.4359,-5.4406,-5.4591,-5.4272,-5.4276,-5.4279,0,-5.3881,-5.3918,-5.4066,-5.4073,-5.4098,-5.4164,-5.4205,-5.4255,-5.4275,-5.4264,-5.4293,-5.4249,-5.4332,-5.4235,-5.435,-5.427,-5.4299,-5.43,-5.4307,-5.4312,-5.4204,-5.4371,-5.4649,-5.4677,-5.4318,-5.4315,-5.4312,0,-5.4068,-5.4154,-5.4254,-5.427,-5.4281,-5.4329,-5.4336,-5.4351,-5.4382,-5.4419,-5.4439,-5.4486,-5.4511,-5.4549,-5.4518,-5.4451,-5.4638,-5.4539,-5.4632,-5.4633,-5.4674,-5.4672,-5.4961,-5.4694,-5.4693,-5.4693,-5.4692,0,-5.4286,-5.4379,-5.4338,-5.4399,-5.4502,-5.4459,-5.4563,-5.4561,-5.4575,-5.4636,-5.4575,-5.4633,-5.459,-5.4645,-5.4622,-5.4721,-5.4733,-5.4727,-5.472,-5.4732,-5.4733,-5.475,-5.4737,-5.47,-5.4699,-5.4697,-5.4696,0,-5.4511,-5.4487,-5.4591,-5.4593,-5.4596,-5.4672,-5.4674,-5.4732,-5.4719,-5.4796,-5.4812,-5.4792,-5.4854,-5.4828,-5.4893,-5.4878,-5.5004,-5.498,-5.4997,-5.4991,-5.5085,-5.5077,-5.5395,-5.5435,-5.5143,-5.5146,-5.5148,0,-5.4651,-5.4722,-5.4732,-5.4768,-5.4779,-5.4838,-5.487,-5.4831,-5.4867,-5.4896,-5.495,-5.5007,-5.5049,-5.5152,-5.5144,-5.5194,-5.517,-5.5279,-5.5177,-5.5188,-5.5172,-5.5168,-5.5175,-5.5299,-5.5302,-5.5305,-5.5307,0,-5.4904,-5.4888,-5.4937,-5.4982,-5.5022,-5.5055,-5.5083,-5.5117,-5.5079,-5.5123,-5.5185,-5.5218,-5.5285,-5.5342,-5.5387,-5.5394,-5.5346,-5.5339,-5.5363,-5.5376,-5.5383,-5.5381,-5.5052,-5.5332,-5.5329,-5.5327,-5.5326,-5.5325,-5.509,-5.515,-5.5166,-5.5222,-5.524,-5.5268,-5.5322,-5.5316,-5.5367,-5.5418,-5.5392,-5.5465,-5.5485,-5.5539,-5.5554,-5.5611,-5.5569,-5.5604,-5.5612,-5.5622,-5.5634,-5.5375,-5.5619,-5.5618,-5.5618,-5.5617,-5.5617,0,-5.5339,-5.5346,-5.5399,-5.544,-5.5485,-5.5435,-5.5464,-5.5505,-5.5569,-5.5591,-5.5635,-5.5707,-5.5763,-5.576,-5.5811,-5.5857,-5.5836,-5.5872,-5.5868,-5.5871,-5.5669,-5.5643,-5.5889,-5.5888,-5.5888,-5.5888,-5.5888,-5.5888,-5.5474,-5.5571,-5.5559,-5.5665,-5.5672,-5.5742,-5.5763,-5.5789,-5.5807,-5.589,-5.5936,-5.5933,-5.5946,-5.5998,-5.6047,-5.6045,-5.6066,-5.6111,-5.6101,-5.5912,-5.5885,-5.5859,-5.5834,-5.6116,-5.6117,-5.6297,-5.6299,-5.63]},{"header":{"parameterUnit":"m.s-1","parameterCategory":1,"la1":30.2991,"la2":30.254,"lo1":-89.0895,"lo2":-89.0444,"dy":0.0017,"dx":0.0017,"nx":28,"ny":28,"refTime":"2023-10-02T03:00:00:Z","depth":0,"parameterNumber":3,"parameterNumberName":"V-component_of_WINDS"},"data":[0,0,0,0,0,0,0,0,0,0,0,0,0,0,0,0,0,0,0,0,0,0,0,0,0,0,0,0,0,0,0,0,0,0,0,0,0,0,0,0,0,0,0,0,0,0,0,0,0,0,0,0,0,0,0,0,0,0,-1.0909,-1.0908,0,-1.0857,-1.0856,-1.0856,-1.0795,-1.0794,-1.0793,-1.0792,-1.074,-1.0739,-1.0739,0,0,0,0,0,0,0,0,0,0,0,0,0,-1.0954,-1.0953,-1.0909,-1.0908,-1.0908,-1.0857,-1.0856,-1.0856,-1.0795,-1.0794,-1.0793,-1.0791,-1.074,-1.0739,-1.0739,0,0,0,0,0,0,0,0,0,0,0,0,0,-1.0921,-1.0953,-1.0909,-1.0871,-1.0867,-1.0857,-1.0856,-1.0856,-1.0795,-1.0794,-1.0792,-1.0791,-1.074,-1.0739,-1.0738,-1.0762,0,0,-1.0736,-1.0736,0,0,0,0,0,0,0,0,-1.0923,-1.092,-1.0877,-1.0874,-1.0869,-1.0831,-1.0853,-1.0824,-1.0795,-1.0822,-1.0792,-1.079,-1.0771,-1.0768,-1.0761,-1.0759,-1.0757,-1.0736,-1.0736,-1.0735,-1.0735,0,0,0,0,0,0,0,-1.0926,-1.0922,-1.0888,-1.0877,-1.0872,-1.0856,-1.085,-1.0847,-1.0805,-1.082,-1.0815,-1.081,-1.0769,-1.0762,-1.0759,-1.0756,-1.0736,-1.0735,-1.0735,-1.0735,-1.0768,-1.077,0,0,0,0,0,0,-1.0934,-1.0924,-1.089,-1.0887,-1.0893,-1.0857,-1.085,-1.0845,-1.0805,-1.0798,-1.0811,-1.0807,-1.0764,-1.076,-1.0757,-1.078,-1.0735,-1.0735,-1.0734,-1.0767,-1.0769,-1.077,0,0,0,0,0,0,-1.0935,-1.0931,-1.0892,-1.0904,-1.0898,-1.0857,-1.0852,-1.0844,-1.0838,-1.0799,-1.0791,-1.0812,-1.0763,-1.0758,-1.076,-1.0778,-1.0734,-1.0733,-1.0765,-1.0767,-1.0769,-1.0828,0,0,0,0,0,0,-1.0936,-1.0932,-1.0941,-1.0905,-1.0897,-1.0897,-1.0853,-1.0844,-1.0836,-1.0831,-1.0798,-1.0791,-1.0761,-1.0762,-1.076,-1.0776,-1.0733,-1.0764,-1.0766,-1.0769,-1.0824,-1.0832,-1.0838,0,0,0,0,0,-1.0938,-1.096,-1.0942,-1.0938,-1.0908,-1.0898,-1.0894,-1.0859,-1.0838,-1.0846,-1.0821,-1.0792,-1.0776,-1.0763,-1.076,-1.0776,-1.0762,-1.0765,-1.0768,-1.0821,-1.083,-1.0838,0,0,0,0,0,0,-1.1,-1.0955,-1.0934,-1.0945,-1.0926,-1.0888,-1.0897,-1.087,-1.0857,-1.0852,-1.081,-1.0803,-1.081,-1.0793,-1.0779,-1.0795,-1.0765,-1.0767,-1.0806,-1.0814,-1.0821,-1.0825,-1.0732,0,0,0,0,0,-1.1015,-1.1011,-1.0971,-1.0985,-1.0976,-1.0938,-1.0933,-1.0908,-1.0886,-1.0878,-1.0853,-1.0833,-1.0823,-1.0818,-1.0807,-1.0821,-1.0812,-1.0831,-1.0837,-1.0843,-1.0846,-1.085,-1.0857,-1.078,-1.078,-1.078,0,0,-1.1046,-1.1021,-1.1021,-1.0997,-1.0979,-1.0975,-1.0932,-1.093,-1.0926,-1.0878,-1.0877,-1.0858,-1.0833,-1.0841,-1.0843,-1.0827,-1.0865,-1.0847,-1.0852,-1.0852,-1.0854,-1.0861,-1.0868,-1.0782,-1.0782,-1.0781,0,0,-1.11,-1.1081,-1.1089,-1.1072,-1.1045,-1.1019,-1.1021,-1.0986,-1.0971,-1.097,-1.0933,-1.0928,-1.0913,-1.0895,-1.0885,-1.0929,-1.0902,-1.0927,-1.0963,-1.0968,-1.0974,-1.0979,-1.0993,-1.0999,-1.093,-1.093,-1.093,0,-1.1142,-1.1135,-1.1097,-1.1097,-1.1086,-1.1041,-1.1048,-1.1033,-1.1004,-1.0998,-1.098,-1.0958,-1.0938,-1.094,-1.0951,-1.0944,-1.0944,-1.0931,-1.0976,-1.0981,-1.0985,-1.0998,-1.1004,-1.0933,-1.0933,-1.0933,-1.0932,0,-1.1187,-1.1182,-1.1192,-1.1164,-1.1154,-1.1158,-1.112,-1.1115,-1.109,-1.1066,-1.1065,-1.1039,-1.1021,-1.1019,-1.0996,-1.1017,-1.1008,-1.0984,-1.0952,-1.0996,-1.1008,-1.1012,-1.0938,-1.0937,-1.0936,-1.0935,0,0,-1.128,-1.1229,-1.1233,-1.1219,-1.1185,-1.118,-1.1181,-1.1162,-1.1158,-1.1139,-1.1138,-1.1125,-1.1101,-1.1089,-1.1063,-1.1067,-1.1102,-1.1042,-1.1041,-1.1053,-1.1122,-1.1139,-1.1146,-1.1083,-1.1084,-1.1084,-1.1123,0,-1.1327,-1.1325,-1.129,-1.1298,-1.1292,-1.1248,-1.1248,-1.1226,-1.1203,-1.1194,-1.1169,-1.1159,-1.113,-1.1122,-1.1124,-1.1097,-1.1115,-1.1094,-1.108,-1.108,-1.1087,-1.1152,-1.1172,-1.1209,-1.1128,-1.1128,-1.1129,0,-1.1382,-1.1365,-1.1372,-1.1335,-1.1331,-1.1332,-1.1311,-1.1304,-1.1278,-1.1261,-1.1246,-1.1215,-1.1212,-1.1183,-1.1177,-1.1164,-1.1156,-1.1141,-1.1142,-1.1139,-1.1107,-1.115,-1.1221,-1.1226,-1.1136,-1.1136,-1.1135,0,-1.1447,-1.1426,-1.1427,-1.1416,-1.1374,-1.1375,-1.1358,-1.133,-1.1321,-1.1302,-1.1295,-1.1277,-1.1267,-1.1253,-1.1218,-1.12,-1.1215,-1.1184,-1.12,-1.1201,-1.1205,-1.1205,-1.1275,-1.1202,-1.1202,-1.1202,-1.1202,0,-1.1503,-1.1508,-1.1455,-1.1456,-1.146,-1.1419,-1.1425,-1.1403,-1.1378,-1.1373,-1.1334,-1.133,-1.1284,-1.1274,-1.1247,-1.1245,-1.1241,-1.1226,-1.1218,-1.1229,-1.1231,-1.1223,-1.1219,-1.1203,-1.1203,-1.1202,-1.1202,0,-1.1576,-1.1541,-1.1539,-1.1498,-1.1488,-1.1493,-1.1458,-1.1456,-1.143,-1.1424,-1.142,-1.1379,-1.1365,-1.1328,-1.1306,-1.1287,-1.1292,-1.1279,-1.1301,-1.1296,-1.1313,-1.1312,-1.138,-1.1386,-1.131,-1.1311,-1.1312,0,-1.1614,-1.1617,-1.1576,-1.157,-1.1553,-1.1544,-1.1533,-1.1492,-1.1483,-1.1452,-1.1454,-1.1437,-1.1421,-1.14,-1.1368,-1.135,-1.1335,-1.136,-1.1332,-1.1342,-1.1333,-1.1333,-1.1332,-1.1366,-1.1367,-1.1368,-1.1369,0,-1.1683,-1.1665,-1.1652,-1.1632,-1.162,-1.1602,-1.1582,-1.1579,-1.1533,-1.1524,-1.1509,-1.1497,-1.1472,-1.1455,-1.1431,-1.1412,-1.1382,-1.1378,-1.138,-1.139,-1.1402,-1.1394,-1.1316,-1.1376,-1.1375,-1.1375,-1.1374,-1.1374,-1.1739,-1.1739,-1.1709,-1.1695,-1.1676,-1.1657,-1.1653,-1.1625,-1.1612,-1.1589,-1.1565,-1.1552,-1.1524,-1.1489,-1.1471,-1.146,-1.1445,-1.1449,-1.145,-1.1451,-1.1455,-1.1405,-1.1456,-1.1455,-1.1455,-1.1455,-1.1455,0,-1.1805,-1.1784,-1.1771,-1.1743,-1.1732,-1.1704,-1.168,-1.1672,-1.1661,-1.1637,-1.1621,-1.1603,-1.1586,-1.1551,-1.1531,-1.1528,-1.1513,-1.1524,-1.1523,-1.1518,-1.1471,-1.147,-1.1535,-1.1535,-1.1535,-1.1535,-1.1535,-1.1535,-1.1838,-1.1836,-1.1814,-1.1801,-1.1779,-1.1765,-1.1754,-1.1736,-1.1716,-1.1698,-1.1683,-1.166,-1.1631,-1.1608,-1.159,-1.158,-1.1574,-1.1588,-1.1574,-1.153,-1.1522,-1.1515,-1.1514,-1.1588,-1.1588,-1.1622,-1.1623,-1.1623]}]]